PRSC-E03

Last updated on Mon Sep 07 2026 00:02:46 GMT+0000 (Coordinated Universal Time)

1 68835U 26092A 26249.63076350 .00001530 00000+0 10740-3 0 9995 2 68835 38.0020 329.2881 0004883 301.5278 58.5006 15.07019974 20242
UTC large
Height (km)
Speed (km/s)
/
Latitude / Longitude
Inclination (degrees)
Orbital Period (minutes)
Azimuth
Elevation
Range (km)
Doppler Factor

Next 0 passes for location: London (51.5072 / 0.1276)

No passes found over London.
PRSC-E03